Regional Weather Roundup
Issued by NWS

Home | Current Version | Previous Version | Graphics & Text | Print | Product List | Glossary On
Versions: 1 2 3 4 5 6 7 8 9 10 11 12 13 14 15 16 17 18 19 20 21 22 23 24 25 26 27 28
432
ASUS43 KDMX 211007
RWRIA

WEATHER ROUNDUP FOR IOWA
NATIONAL WEATHER SERVICE DES MOINES IA
500 AM CDT THU MAY 21 2015

NOTE: "FAIR" INDICATES FEW OR NO CLOUDS BELOW 12,000 FEET WITH NO
SIGNIFICANT WEATHER AND/OR OBSTRUCTIONS TO VISIBILITY.

* - THESE STATIONS ARE NOT NWS STATIONS...THUS NOT UNDER NWS
QUALITY CONTROL.  THEY ALSO DO NOT REPORT WEATHER SUCH
AS PRECIPITATION OR FOG.

IAZ001>003-012>014-020>022-031>034-043>046-211100-
   NORTHWEST IOWA

CITY           SKY/WX    TMP DP  RH WIND       PRES   REMARKS
CARROLL *      MOCLDY    43  37  81 W14       30.19F
CHEROKEE *     CLEAR     39  39 100 SW6       30.19S WCI  35
DENISON *      CLEAR     39  39 100 W6        30.19F WCI  35
LE MARS *      CLEAR     43  39  87 CALM      30.21S
ORANGE CITY *  CLEAR     37  36  93 W8        30.19S WCI  31
SHELDON *      CLEAR     39  39 100 SW5       30.17S
SIOUX CITY     CLEAR     42  36  79 NW5       30.22R
SPENCER        CLEAR     41  38  89 W13       30.16S
STORM LAKE *   CLEAR     41  37  87 W13       30.19S
$$

IAZ055>058-069>071-079>083-090>094-211100-
   SOUTHWEST IOWA

CITY           SKY/WX    TMP DP  RH WIND       PRES   REMARKS
ATLANTIC *     CLEAR     37  37 100 SW3       30.24S
AUDUBON *      CLEAR     39  36  87 SW7       30.22F WCI  34
CLARINDA *     CLEAR     39  39 100 CALM      30.27S
COUNCIL BLFS * CLEAR     41  41 100 SW6       30.25S
CRESTON *      CLEAR     37  37 100 NW7       30.23S WCI  32
HARLAN  *      CLEAR     37  37 100 S3        30.26F
LAMONI         FOG       44  42  93 NW7       30.22F VSB 1/2
RED OAK *      CLEAR     39  39 100 CALM      30.25S
SHENANDOAH *   CLEAR     41  41 100 CALM      30.27S
$$

IAZ047>049-059>061-072>074-084-211100-
   CENTRAL IOWA

CITY           SKY/WX    TMP DP  RH WIND       PRES   REMARKS
AMES           CLEAR     40  37  89 W9        30.19F WCI  34
ANKENY *       CLEAR     43  41  93 W10       30.20F
CHARITON *     FOG       41  41 100 W7        30.21S VSB 1/2
DES MOINES     PTCLDY    42  38  85 NW7       30.21S
GRINNELL*      CLEAR     41  39  93 W7        30.19S
KNOXVILLE *    FOG       41  39  93 W8        30.19S VSB 1/4
MARSHALLTOWN   CLEAR     38  36  92 W7        30.17F WCI  33
PELLA *        CLEAR     43  43 100 W6        30.21R
PERRY *          N/A     39  39 100 W9        30.21S WCI  33
$$

IAZ004>006-015-016-023>025-035-036-211100-
   NORTH CENTRAL IOWA

CITY           SKY/WX    TMP DP  RH WIND       PRES   REMARKS
ALGONA *       CLEAR     41  41 100 SW10      30.15F
CLARION *      CLEAR     39  39 100 SW6       30.16F WCI  35
ESTHERVILLE    CLEAR     41  37  86 W12       30.13S
FORT DODGE *   CLEAR     41  36  81 SW8       30.18F
MASON CITY     CLEAR     44  38  79 W15       30.14F
FOREST CITY *  CLEAR     37  37 100 W5        30.14F WCI  34
IOWA FALLS *     N/A     41  37  87 W12       30.17F
$$

IAZ007>011-017>019-026>030-037>042-050>054-066-211100-
   NORTHEAST IOWA

CITY           SKY/WX    TMP DP  RH WIND       PRES   REMARKS
CEDAR RAPIDS   CLEAR     36  36 100 W5        30.16F WCI  32
CHARLES CITY * CLOUDY    45  39  81 W13       30.13F
CLINTON *      CLEAR     39  37  93 W8        30.17S WCI  34
DECORAH *      CLEAR     41  39  93 SW5       30.11F
DUBUQUE        CLEAR     39  36  89 W9        30.13F WCI  33
MONTICELLO *   CLEAR     39  39 100 W5        30.15F
OELWEIN *      MOCLDY    39  37  93 W7        30.14F WCI  34
WATERLOO       CLEAR     39  37  92 SW6       30.14F WCI  35
$$

IAZ064-065-067-068-078-211100-
   EAST CENTRAL IOWA

CITY           SKY/WX    TMP DP  RH WIND       PRES   REMARKS
DAVENPORT      CLOUDY    41  38  89 W7        30.16S
IOWA CITY      CLEAR     36  35  96 W5        30.19S WCI  32
MT. PLEASANT * CLEAR     39  39 100 W5        30.18S FOG
MUSCATINE *    CLEAR     41  37  87 CALM      30.18S
QUAD CITIES    CLOUDY    43  39  86 W7        30.15F
$$

IAZ062-063-075>077-085>089-095>099-211100-
   SOUTHEAST IOWA

CITY           SKY/WX    TMP DP  RH WIND       PRES   REMARKS
BURLINGTON     CLEAR     39  38  96 CALM      30.17F
FAIRFIELD *    CLEAR     39  37  93 W7        30.19R FOG     WCI  34
FORT MADISON *   N/A     39  39 100 CALM      30.19S
KEOKUK *       CLEAR     41  39  93 SW3       30.18S
OSKALOOSA *    FOG       39  37  93 W7        30.20R VSB 1/4 WCI  34
CENTERVILLE *  PTCLDY    41  41 100 W9        30.22R
OTTUMWA        FOG       38  37  97 W7        30.19R VSB 1   WCI  33
WASHINGTON *   PTCLDY    37 N/A N/A W8        30.18S FOG     WCI  31
$$

ABBREVIATIONS USED IN REMARKS
   TC - TEMPERATURES IN CELSIUS
  WCI - WIND CHILL INDEX
   HX - HEAT INDEX
  VSB - VISIBILITY
$$




USA.gov is the U.S. government's official web portal to all federal, state and local government web resources and services.